SCP
0 0 0 0 0 0 0 0 0 0 0 0 0 -0 -0 -0 0 0 0 0 0 0 0 0 0 0 0 0 0 0 0 0 0 0 0 0 0 0 0 0 0 0 0 0 0 0 0 0 0 0 0 0 0 0
0 0 0 0 0 0 0 0 0 0 0 0 0 0 0 0 0 0 0 0 0 0 0 0 0 0 0 0 0 0 0 0 0 0 0 0 0 0 0 0 0 0 0 0 0 0 0 0 0 0 0 0 0 0
0 0 0 0 0 0 0 0 0 0 0 0 0 0 0 0 0 0 0 0 0 0 0 0 0 0 0 0 0 0 0 0 0 0 0 0 0 0 0 0 0 0 0 0 0 0 0 0 0 0 0 0 0 0
-0 0 0 0 0 0 0 0 0 0 0 0 0 0 0 0 0 0 0 0 0 0 0 0 0 0 0 0 0 0 0 0 0 0 0 0 0 0 0 0 0 0 0 0 0 0 0 0 0 0 0 0 0 0
-0 0 0 0 -0 0 0 0 0 0 0 0 0 0 0 0 0 0 0 0 0 0 0 0 0 0 0 0 0 0 0 0 0 0 0 0 0 0 0 0 0 0 0 0 0 0 0 0 0 0 0 0 0 0
0 0 0 0 0 0 0 0 0 0 0 0 0 0 0 0 0 0 0 0 0 0 0 0 0 0 0 0 0 0 0 0 0 0 0 0 0 0 0 0 0 0 0 0 0 0 0 0 0 0 0 0 0 0
0 0 0 0 0 0 0 0 0 0 0 0 0 0 0 0 0 0 0 0 0 0 0 0 0 0 0 0 0 0 0 0 0 0 0 0 0 0 0 0 0 0 0 0 0 0 0 0 0 0 0 0 0 0
0 0 0 0 0 0 0 0 0 0 0 0 0 0 0 0 0 0 0 0 0 0 0 0 0 0 0 0 0 0 0 0 0 0 0 0 0 0 0 0 0 0 0 0 0 0 0 0 0 0 0 0 0 0
0 0 0 0 0 0 0 0 0 0 0 0 0 0 0 0 0 0 0 0 0 0 0 0 0 0 0 0 0 0 0 0 0 0 0 0 0 0 0 0 0 0 0 0 0 0 0 0 0 0 0 0 0 0
0 0 0 0 0 0 0 0 0 0 0 0 0 0 0 0 0 0 0 0 0 0 0 0 0 0 0 0 0 0 0 0 0 0 0 0 0 0 0 0 0 0 0 0 0 0 0 0 0 0 0 0 0 0
0 0 0 0 0 0 0 0 0 0 0 0 0 0 0 0 0 0 0 0 0 0 0 0 0 0 0 0 0 0 0 0 0 0 0 0 0 0 0 0 0 0 0 0 0 0 0 0 0 0 0 0 0 0
0 0 0 0 0 0 0 0 0 0 0 0 0 0 0 0 0 0 0 0 0 0 0 0 0 0 0 0 0 0 0 0 0 0 0 0 0 0 0 0 0 0 0 0 0 0 0 0 0 0 0 0 0 0
-0 0 0 0 0 0 0 -0 0 0 0 0 0 0 0 0 0 0 0 0 0 0 0 0 0 0 0 0 0 0 0 0 0 0 0 0 0 0 0 0 0 0 0 0 0 0 0 0 0 0 0 0 0 0
-0 -0 0 0 0 0 0 0 -0 0 0 0 0 0 0 0 0 0 0 0 0 0 0 0 0 0 0 0 0 0 0 0 0 0 0 0 0 0 0 0 0 0 0 0 0 0 0 0 0 0 0 0 0 0
-0 -0 -0 -0 0 0 0 0 0 0 0 0 0 0 0 0 0 0 0 0 0 0 0 0 0 0 0 0 0 0 0 0 0 0 0 0 0 0 0 0 0 0 0 0 0 0 0 0 0 0 0 0 0 0
-0 -0 -0 -0 0 0 0 0 0 0 0 0 0 0 0 0 0 0 0 0 0 0 0 0 0 0 0 0 0 0 0 0 0 0 0 0 0 0 0 0 0 0 0 0 0 0 0 0 0 0 0 0 0 0
-0 0 -0 -0 0 0 0 0 0 0 -0 0 0 0 0 -0 0 0 0 0 0 0 0 0 0 0 0 0 0 0 0 0 0 0 0 0 0 0 0 0 0 0 0 0 0 0 0 0 0 0 0 0 0 0
0 0 -0 -0 0 0 0 0 0 0 -0 -0 0 0 0 0 0 0 0 0 0 0 0 0 0 0 0 0 0 0 0 0 0 0 0 0 0 0 0 0 0 0 0 0 0 0 0 0 0 0 0 0 0 0
0 -0 -0 -0 0 0 0 0 0 0 0 0 0 0 0 0 0 0 0 0 0 0 0 0 0 0 0 0 0 0 0 0 0 0 0 0 0 0 0 0 0 0 0 0 0 0 0 0 0 0 0 0 0 0
0 -0 -0 -0 0 0 0 0 0 0 0 0 0 0 0 0 0 0 0 0 0 0 0 0 0 0 0 0 0 0 0 0 0 0 0 0 0 0 0 0 0 0 0 0 0 0 0 0 0 0 0 0 0 0
0 0 -0 0 0 0 0 0 0 0 0 0 0 -0 0 0 0 0 0 0 0 0 0 0 0 0 0 0 0 0 0 0 0 0 0 0 0 0 0 0 0 0 0 0 0 0 0 0 0 0 0 0 0 0
0 -0 0 -0 0 0 0 0 0 0 0 0 0 0 0 0 0 0 0 0 0 0 0 0 0 0 0 0 0 0 0 0 0 0 0 0 0 0 0 0 0 0 0 0 0 0 0 0 0 0 0 0 0 0
-0 0 0 -0 0 0 0 0 0 0 0 0 0 -0 0 0 0 0 0 0 0 0 0 0 0 0 0 0 0 0 0 0 0 0 0 0 0 0 0 0 0 0 0 0 0 0 0 0 0 0 0 0 0 0
-0 -0 -0 -0 -0 0 -0 -0 0 0 0 0 0 0 0 0 0 0 0 0 0 0 0 0 0 0 0 0 0 0 0 0 0 0 0 0 0 0 0 0 0 0 0 0 0 0 0 0 0 0 0 0 0 0
0 -0 0 -0 -0 -0 -0 -0 0 0 0 0 0 0 0 0 0 0 0 0 0 0 0 0 0 0 0 0 0 0 0 0 0 0 0 0 0 0 0 0 0 0 0 0 0 0 0 0 0 0 0 0 0 0
0 0 0 0 0 -0 0 -0 -0 0 0 0 0 0 0 0 0 0 0 0 0 0 0 0 0 0 0 0 0 0 0 0 0 0 0 0 0 0 0 0 0 0 0 0 0 0 0 0 0 0 0 0 0 0
-0 -0 0 0 0 0 -0 0 0 -0 0 0 0 0 0 0 0 0 0 0 0 0 0 0 0 0 0 0 0 0 0 0 0 0 0 0 0 0 0 0 0 0 0 0 0 0 0 0 0 0 0 0 0 0
0 0 0 -0 0 0 0 -0 -0 -0 -0 -0 -0 0 0 0 0 0 0 0 0 0 0 0 0 0 0 0 0 0 0 0 0 0 0 0 0 0 0 0 0 0 0 0 0 0 0 0 0 0 0 0 0 0
0 0 0 0 0 0 0 0 0 0 0 -0 -0 -0 -0 0 0 0 0 0 0 0 0 0 0 0 0 0 0 0 0 0 0 0 0 0 0 0 0 0 0 0 0 0 0 0 0 0 0 0 0 0 0 0
0 0 0 0 0 0 0 0 0 0 0 0 -0 -0 -0 -0 -0 0 0 0 0 0 0 0 0 0 0 0 0 0 0 0 0 0 0 0 0 0 0 0 0 0 0 0 0 0 0 0 0 0 0 0 0 0
0 0 0 0 0 0 0 0 0 0 0 0 0 0 0 0 -0 0 0 0 0 0 0 0 0 0 0 0 0 0 0 0 0 0 0 0 0 0 0 0 0 0 0 0 0 0 0 0 0 0 0 0 0 0
0 0 0 0 0 0 0 0 0 0 0 0 0 0 0 0 0 0 0 0 0 0 0 0 0 -0 0 0 0 0 0 0 0 0 0 0 0 0 0 0 0 0 0 0 0 0 0 0 0 0 0 0 0 0
0 0 0 0 0 0 0 0 0 0 0 0 0 0 0 0 0 0 0 0 0 0 0 0 0 0 0 0 0 0 0 0 0 0 0 0 0 0 0 0 0 0 0 0 0 0 0 0 0 0 0 0 0 0
Wind_Speed_500mb
5 4 6 6 10 22 23 17 20 19 14 15 16 13 16 18 25 38 38 29 42 19 21 28 43 46 31 42 21 22 16 3 3 7 7 7 6 10 8 10 13 14 13 7 7 2 26 18 9 19 8 5 10 12
8 6 7 4 16 26 27 22 24 22 21 19 17 15 12 21 21 25 39 34 45 39 31 46 43 39 51 43 45 39 8 14 16 9 4 8 5 3 7 9 2 6 12 12 19 12 4 40 5 23 13 18 18 17
2 16 10 7 33 36 34 32 28 26 23 19 18 18 19 16 25 25 32 54 71 47 45 33 35 36 35 34 65 28 11 20 13 14 9 5 7 7 9 9 5 8 5 5 6 7 9 31 19 20 15 18 24 24
53 19 14 12 24 38 39 34 30 24 22 21 19 16 21 25 26 32 29 20 24 24 10 18 37 31 33 38 43 41 46 30 37 27 10 5 6 10 7 6 7 7 19 12 6 4 1 13 29 25 21 25 21 20
73 75 59 31 24 54 52 42 33 26 21 19 19 18 17 22 27 30 39 26 10 14 6 11 40 40 30 28 33 31 46 59 24 8 7 5 9 7 3 4 4 12 11 11 9 21 9 13 44 32 27 20 14 7
60 61 65 66 61 63 54 43 34 31 26 23 22 22 21 21 24 27 14 28 30 38 16 6 12 28 48 44 43 44 48 35 17 14 6 9 8 7 7 6 5 17 17 13 9 24 9 13 39 28 14 11 11 9
43 44 47 48 49 49 43 41 34 28 23 22 22 21 20 20 15 14 8 20 27 25 14 6 5 7 20 29 34 33 24 17 11 11 6 11 8 9 5 5 5 21 15 17 34 30 19 20 17 22 18 15 13 7
27 33 30 27 27 29 33 31 30 26 22 21 23 23 23 21 16 22 18 24 19 19 15 7 2 5 8 9 9 11 10 9 17 8 6 5 7 5 1 11 16 29 27 30 24 15 23 23 19 14 9 5 3 7
24 24 24 20 15 12 14 20 19 18 18 16 18 17 18 14 11 12 17 16 14 14 11 6 8 7 10 8 9 10 10 7 6 4 3 4 2 5 11 20 32 41 28 27 22 19 19 12 5 1 5 8 10 10
26 23 20 20 16 12 4 8 12 11 13 15 15 10 9 11 27 17 9 6 6 10 9 5 7 6 11 5 5 6 8 3 4 3 3 6 6 15 11 17 26 33 22 27 19 7 4 8 14 13 15 17 17 19
24 21 16 8 8 9 7 12 9 5 13 12 8 9 15 23 9 2 5 6 2 5 5 8 6 9 7 7 5 6 4 2 6 6 7 1 6 8 23 20 26 23 15 12 13 13 13 16 14 11 10 9 9 13
28 22 11 7 2 4 7 17 12 6 11 13 13 15 15 1 1 3 3 3 4 9 6 7 12 13 12 11 7 4 6 4 5 7 6 5 6 10 27 38 28 25 22 22 23 25 25 23 18 15 14 14 15 17
25 19 4 2 4 10 8 22 18 15 19 13 7 5 4 3 3 7 6 4 0 5 15 15 8 12 10 10 11 6 7 4 10 4 7 7 5 17 23 26 29 28 27 26 23 19 15 13 11 12 15 19 21 23
23 9 10 8 10 4 14 22 28 26 13 5 4 6 4 2 2 3 2 2 5 4 24 29 11 6 8 7 3 9 3 3 5 3 10 5 17 27 31 29 27 22 20 19 17 13 11 9 6 3 0 2 6 10
17 6 14 19 14 11 21 21 20 36 7 5 7 3 3 3 3 4 8 8 8 12 26 16 14 11 5 8 4 7 5 5 9 9 6 12 29 27 27 25 22 19 17 15 16 15 13 10 5 2 8 13 18 22
8 12 16 19 4 5 5 22 54 16 6 5 7 7 4 3 2 6 10 5 9 13 17 12 7 7 4 7 7 9 14 11 7 6 14 33 31 30 28 28 27 27 24 18 12 6 1 4 8 12 18 21 25 27
5 6 2 17 20 22 29 44 19 10 7 7 6 12 8 8 6 4 5 7 2 3 4 5 7 6 5 6 2 6 9 4 4 19 31 30 30 29 28 26 23 20 15 12 9 8 9 13 16 20 24 28 32 36
19 13 20 46 39 39 40 17 8 7 12 15 5 8 8 12 6 8 10 12 6 4 2 5 15 5 9 9 6 4 7 12 21 27 33 32 28 24 20 17 14 13 12 12 13 14 16 21 28 34 39 43 45 48
20 22 38 48 43 23 8 9 10 9 9 7 8 12 8 9 20 17 17 12 11 11 7 5 8 4 3 5 3 6 13 10 14 20 23 22 20 17 13 8 5 3 7 11 17 23 29 35 40 44 47 50 51 51
34 30 27 32 29 7 10 11 10 11 6 5 7 9 7 7 12 16 25 15 12 8 14 10 5 5 5 5 7 9 9 12 15 16 17 14 12 8 3 7 10 13 18 23 27 31 34 36 42 47 50 51 52 50
20 21 20 13 13 18 14 10 13 11 7 7 7 9 8 12 14 20 22 23 14 13 5 8 10 11 7 6 7 6 7 7 8 8 8 8 8 10 14 18 20 26 29 33 34 35 40 44 45 45 45 44 45 44
18 16 22 13 13 12 17 19 9 6 5 7 8 11 12 7 12 19 18 26 13 12 10 10 13 9 6 3 5 4 3 2 1 4 7 9 11 14 18 25 25 27 32 35 36 37 37 39 40 40 39 35 33 30
14 15 17 20 11 16 8 13 7 14 7 9 7 8 9 10 19 14 12 11 8 17 15 12 11 8 6 5 4 3 5 7 8 9 11 14 17 20 21 24 26 24 22 23 21 20 22 24 26 27 28 27 26 24
18 15 19 17 26 6 9 13 10 10 9 9 7 8 9 12 21 11 6 5 8 13 17 14 11 9 5 6 7 6 6 7 9 13 13 15 17 20 20 21 21 20 19 20 21 21 22 24 25 25 27 26 26 26
13 29 18 17 21 16 15 12 12 10 7 6 6 7 8 14 6 7 2 8 15 18 20 19 17 13 11 9 10 10 11 13 12 11 16 14 14 15 18 21 22 22 23 23 24 23 24 27 28 28 28 30 30 29
17 25 15 12 13 10 5 8 9 7 5 8 3 13 7 4 8 2 4 13 14 21 22 21 18 13 12 10 10 10 13 15 16 16 16 16 17 19 21 24 24 23 26 26 26 27 27 29 29 29 29 31 32 33
13 10 15 20 10 8 6 5 3 6 9 10 7 10 6 8 4 6 11 14 19 22 20 18 17 16 13 11 13 16 18 19 21 21 21 22 24 27 27 27 27 27 28 29 31 32 32 32 32 33 34 32 33 37
10 20 5 26 11 14 5 4 6 4 5 8 7 8 4 3 4 9 8 17 18 18 17 17 17 17 17 17 17 17 18 20 22 24 24 23 21 22 25 26 25 27 30 31 33 33 35 36 36 37 39 40 37 36
10 29 18 10 8 11 11 4 3 6 12 6 2 4 6 3 8 9 11 14 18 20 17 15 18 20 20 21 20 20 20 21 22 20 20 21 21 20 22 24 26 29 32 32 33 37 38 39 41 43 42 42 41 39
16 31 12 10 5 5 5 11 11 16 12 10 10 9 8 5 4 3 8 15 22 29 26 19 19 21 22 21 19 20 23 22 19 21 26 25 27 28 29 32 35 36 40 40 39 37 40 44 45 46 49 50 48 47
19 18 9 5 4 5 17 20 17 13 8 6 8 9 10 9 5 6 12 21 24 26 30 22 18 23 24 26 27 29 25 21 23 26 30 31 32 32 34 36 39 41 44 45 46 46 47 48 50 53 54 55 54 55
14 12 12 6 5 12 14 18 12 7 6 6 5 8 7 7 6 8 17 23 22 25 28 22 24 22 26 27 28 31 33 28 30 35 38 41 42 42 43 44 45 47 49 50 49 49 50 52 54 54 56 56 56 56
10 11 8 8 8 6 10 22 5 9 7 5 4 6 6 5 6 7 21 24 25 25 17 19 26 27 29 31 31 35 34 36 39 41 43 47 49 50 51 50 49 48 51 53 53 53 55 56 59 60 61 62 62 63
Wind_Direction_500mb
152 124 108 79 154 160 147 149 137 134 133 113 102 88 87 69 45 38 37 87 149 97 98 158 161 168 150 170 162 155 102 220 71 112 124 159 117 206 110 161 174 151 151 185 93 118 257 166 101 164 204 121 162 155
185 196 138 90 173 181 147 149 135 132 148 145 120 104 96 101 65 47 53 49 124 116 102 121 138 162 171 169 149 161 115 143 166 106 109 107 98 153 154 190 350 200 184 173 181 209 216 185 179 202 179 169 163 148
210 207 175 157 163 155 150 149 137 124 122 137 143 111 100 91 98 81 83 88 89 90 70 96 87 118 141 154 170 156 147 152 151 121 126 119 144 128 160 238 91 244 190 181 110 212 194 199 206 189 186 173 152 141
72 79 168 162 182 158 147 142 139 127 119 121 126 135 105 107 111 106 102 93 68 78 88 49 82 105 118 147 165 176 178 151 141 137 90 117 137 190 195 157 166 186 145 163 289 296 356 217 203 186 164 158 154 149
54 55 92 95 160 130 122 117 117 123 115 113 114 113 120 104 103 113 106 101 97 84 106 87 67 70 107 141 159 158 169 150 133 84 78 152 137 125 347 66 240 188 173 174 220 189 177 197 195 178 172 168 172 179
46 44 54 60 68 82 91 96 106 104 102 107 107 112 116 132 125 120 69 72 100 109 100 74 55 74 99 123 140 141 146 148 132 119 135 136 161 174 146 186 270 175 180 170 162 144 132 128 174 183 185 175 164 148
50 48 47 50 56 65 79 83 88 98 102 102 100 107 118 125 135 68 92 129 104 107 88 74 47 43 73 101 96 99 109 99 100 104 95 139 152 133 109 157 168 167 157 148 139 140 125 143 153 159 152 145 141 139
38 35 35 46 59 66 64 71 80 90 100 97 97 108 109 115 110 66 89 135 97 91 87 101 37 37 61 49 67 53 69 64 47 102 97 92 99 55 137 232 149 151 137 137 128 122 137 129 121 122 129 152 240 283
30 27 34 35 29 59 87 84 80 85 100 112 102 94 83 75 56 83 118 131 78 77 113 99 132 167 136 85 81 58 52 54 21 80 58 86 2 206 220 191 171 166 160 165 159 140 129 122 114 260 267 266 265 290
35 27 29 39 53 57 128 124 96 101 114 122 118 53 61 80 117 112 83 102 50 34 65 95 129 119 131 113 70 95 42 94 92 274 117 79 244 267 217 196 174 155 126 144 144 196 237 297 288 282 284 281 282 281
6 10 14 6 41 54 77 167 134 187 125 100 58 59 99 130 138 95 101 95 55 31 83 109 111 119 106 98 125 41 151 32 94 251 128 257 266 220 172 156 162 174 189 201 232 219 270 272 260 261 279 272 282 293
350 346 359 348 178 126 123 146 177 152 81 87 100 91 123 161 318 80 143 66 85 201 159 128 139 110 107 109 97 17 103 44 186 159 81 284 249 187 186 197 197 205 218 225 230 241 248 245 248 264 281 288 292 296
339 337 311 306 209 160 133 166 173 154 138 103 63 82 57 353 19 180 146 297 40 170 164 152 100 117 106 90 70 90 89 170 128 82 220 229 191 187 170 178 192 204 214 220 220 222 226 235 246 265 282 289 291 290
333 308 215 143 110 174 166 159 170 152 129 96 80 27 112 311 351 358 208 271 355 319 160 138 92 105 108 63 109 96 246 108 59 164 232 223 187 167 167 171 176 180 186 191 194 200 215 234 245 240 54 350 321 313
324 202 193 178 148 86 179 184 186 159 147 127 114 183 193 101 32 339 329 331 355 144 139 108 70 87 28 101 58 112 80 175 201 220 219 167 160 160 159 158 159 157 151 145 139 132 126 121 115 337 320 316 312 309
81 171 208 210 171 55 137 164 148 139 82 98 70 72 60 100 8 22 13 42 352 138 128 61 86 68 57 118 103 193 130 198 231 207 157 154 153 150 148 145 141 137 135 131 132 137 158 292 299 304 304 304 303 302
0 157 164 208 180 168 144 141 126 45 55 55 15 54 41 55 70 5 23 17 80 51 115 113 95 162 100 70 27 205 194 223 87 127 142 148 147 145 144 144 143 146 153 168 188 224 263 282 292 297 299 302 303 303
55 121 88 146 156 147 128 116 109 79 61 45 60 12 52 34 18 39 29 15 57 64 23 131 126 109 150 149 253 231 87 97 126 140 143 149 153 153 153 151 155 169 190 213 232 254 275 289 295 298 298 299 300 299
65 128 141 146 148 128 102 51 47 90 64 73 57 33 49 65 48 39 29 34 82 86 90 53 73 86 123 43 33 82 115 126 143 146 151 152 154 155 158 167 189 239 286 289 286 286 288 288 290 290 290 291 292 293
80 145 136 132 156 85 81 52 52 73 79 55 46 26 43 45 58 37 37 46 60 48 41 34 44 36 21 42 91 123 101 117 145 154 157 163 169 173 240 269 281 280 282 284 286 287 287 289 289 290 290 290 291 292
75 77 108 124 70 68 77 48 56 57 60 70 26 40 44 30 30 29 16 21 68 44 67 45 38 33 45 83 93 106 107 116 127 142 162 168 211 262 276 282 290 297 305 306 306 306 306 304 302 297 294 292 292 294
74 105 97 91 58 66 64 39 61 47 43 56 33 22 43 38 21 9 3 43 51 25 23 15 19 31 46 48 51 76 98 82 39 296 286 284 284 293 298 301 304 303 305 307 311 313 313 308 305 302 299 296 292 289
64 60 57 34 73 47 35 25 45 23 59 355 19 41 23 13 4 8 71 56 65 16 15 16 17 17 44 60 50 5 324 314 303 298 301 300 299 297 297 296 298 299 301 306 317 325 327 323 318 311 304 299 298 298
56 51 31 37 27 19 360 30 36 28 44 26 30 13 354 337 350 53 76 61 17 8 7 3 9 19 32 25 26 11 332 315 321 317 315 311 307 304 302 296 297 300 304 311 313 317 316 312 308 308 306 303 300 299
64 12 23 3 15 17 24 7 358 25 46 348 45 0 338 345 50 42 19 357 13 17 16 11 4 10 21 27 12 350 339 333 334 317 308 305 301 300 301 301 300 303 304 304 304 303 303 303 304 304 302 300 299 299
66 18 36 350 360 39 340 24 17 348 332 10 350 317 315 47 59 340 257 339 349 358 3 10 13 9 350 343 330 321 319 319 318 314 307 307 301 297 298 298 296 301 299 298 296 298 301 301 300 301 301 301 302 301
48 342 12 23 3 341 21 18 355 49 36 11 350 337 348 57 9 287 344 354 347 351 354 353 352 353 352 342 331 331 327 324 321 315 309 305 302 298 296 297 297 294 293 295 297 298 298 297 297 299 299 297 296 295
66 21 5 339 13 20 116 52 45 32 287 342 300 14 86 163 238 339 340 348 355 3 5 2 359 356 351 349 346 337 325 321 318 316 315 310 305 299 298 298 298 298 298 295 295 297 297 296 295 292 291 292 292 291
18 352 352 355 6 38 44 75 307 351 332 316 156 280 281 295 336 355 12 18 19 12 7 3 1 358 351 347 339 332 327 323 321 320 319 323 322 318 312 306 303 300 298 298 296 296 295 294 293 294 294 295 294 291
356 355 3 8 51 351 358 351 333 325 319 300 290 292 297 323 357 58 61 34 20 14 3 350 351 353 349 346 342 333 325 323 319 314 315 316 311 310 306 302 300 299 296 297 295 291 290 291 291 291 293 295 296 295
343 349 330 330 285 327 338 330 331 323 316 303 301 288 298 315 298 286 326 341 341 346 352 348 332 337 340 338 336 339 342 330 326 322 317 315 313 310 306 302 300 298 296 295 294 293 291 288 287 288 288 289 290 291
326 347 344 329 315 325 333 342 319 310 301 302 294 308 309 307 294 323 339 335 332 330 331 328 335 329 324 326 324 324 322 318 315 314 313 312 312 311 308 304 302 298 296 295 295 294 292 291 291 291 292 293 294 293
307 329 321 305 305 320 332 339 315 324 274 280 287 305 311 285 276 327 345 347 340 333 337 337 331 330 326 323 321 320 314 313 313 311 310 308 308 307 304 303 300 297 295 294 294 294 293 293 294 295 295 295 296 296
Wind_Speed_850mb
5 4 6 6 10 22 23 17 20 19 14 15 16 13 16 18 25 38 38 29 42 19 21 28 43 46 31 42 21 22 16 3 3 7 7 7 6 10 8 10 13 14 13 7 7 2 26 18 9 19 8 5 10 12
8 6 7 4 16 26 27 22 24 22 21 19 17 15 12 21 21 25 39 34 45 39 31 46 43 39 51 43 45 39 8 14 16 9 4 8 5 3 7 9 2 6 12 12 19 12 4 40 5 23 13 18 18 17
2 16 10 7 33 36 34 32 28 26 23 19 18 18 19 16 25 25 32 54 71 47 45 33 35 36 35 34 65 28 11 20 13 14 9 5 7 7 9 9 5 8 5 5 6 7 9 31 19 20 15 18 24 24
53 19 14 12 24 38 39 34 30 24 22 21 19 16 21 25 26 32 29 20 24 24 10 18 37 31 33 38 43 41 46 30 37 27 10 5 6 10 7 6 7 7 19 12 6 4 1 13 29 25 21 25 21 20
73 75 59 31 24 54 52 42 33 26 21 19 19 18 17 22 27 30 39 26 10 14 6 11 40 40 30 28 33 31 46 59 24 8 7 5 9 7 3 4 4 12 11 11 9 21 9 13 44 32 27 20 14 7
60 61 65 66 61 63 54 43 34 31 26 23 22 22 21 21 24 27 14 28 30 38 16 6 12 28 48 44 43 44 48 35 17 14 6 9 8 7 7 6 5 17 17 13 9 24 9 13 39 28 14 11 11 9
43 44 47 48 49 49 43 41 34 28 23 22 22 21 20 20 15 14 8 20 27 25 14 6 5 7 20 29 34 33 24 17 11 11 6 11 8 9 5 5 5 21 15 17 34 30 19 20 17 22 18 15 13 7
27 33 30 27 27 29 33 31 30 26 22 21 23 23 23 21 16 22 18 24 19 19 15 7 2 5 8 9 9 11 10 9 17 8 6 5 7 5 1 11 16 29 27 30 24 15 23 23 19 14 9 5 3 7
24 24 24 20 15 12 14 20 19 18 18 16 18 17 18 14 11 12 17 16 14 14 11 6 8 7 10 8 9 10 10 7 6 4 3 4 2 5 11 20 32 41 28 27 22 19 19 12 5 1 5 8 10 10
26 23 20 20 16 12 4 8 12 11 13 15 15 10 9 11 27 17 9 6 6 10 9 5 7 6 11 5 5 6 8 3 4 3 3 6 6 15 11 17 26 33 22 27 19 7 4 8 14 13 15 17 17 19
24 21 16 8 8 9 7 12 9 5 13 12 8 9 15 23 9 2 5 6 2 5 5 8 6 9 7 7 5 6 4 2 6 6 7 1 6 8 23 20 26 23 15 12 13 13 13 16 14 11 10 9 9 13
28 22 11 7 2 4 7 17 12 6 11 13 13 15 15 1 1 3 3 3 4 9 6 7 12 13 12 11 7 4 6 4 5 7 6 5 6 10 27 38 28 25 22 22 23 25 25 23 18 15 14 14 15 17
25 19 4 2 4 10 8 22 18 15 19 13 7 5 4 3 3 7 6 4 0 5 15 15 8 12 10 10 11 6 7 4 10 4 7 7 5 17 23 26 29 28 27 26 23 19 15 13 11 12 15 19 21 23
23 9 10 8 10 4 14 22 28 26 13 5 4 6 4 2 2 3 2 2 5 4 24 29 11 6 8 7 3 9 3 3 5 3 10 5 17 27 31 29 27 22 20 19 17 13 11 9 6 3 0 2 6 10
17 6 14 19 14 11 21 21 20 36 7 5 7 3 3 3 3 4 8 8 8 12 26 16 14 11 5 8 4 7 5 5 9 9 6 12 29 27 27 25 22 19 17 15 16 15 13 10 5 2 8 13 18 22
8 12 16 19 4 5 5 22 54 16 6 5 7 7 4 3 2 6 10 5 9 13 17 12 7 7 4 7 7 9 14 11 7 6 14 33 31 30 28 28 27 27 24 18 12 6 1 4 8 12 18 21 25 27
5 6 2 17 20 22 29 44 19 10 7 7 6 12 8 8 6 4 5 7 2 3 4 5 7 6 5 6 2 6 9 4 4 19 31 30 30 29 28 26 23 20 15 12 9 8 9 13 16 20 24 28 32 36
19 13 20 46 39 39 40 17 8 7 12 15 5 8 8 12 6 8 10 12 6 4 2 5 15 5 9 9 6 4 7 12 21 27 33 32 28 24 20 17 14 13 12 12 13 14 16 21 28 34 39 43 45 48
20 22 38 48 43 23 8 9 10 9 9 7 8 12 8 9 20 17 17 12 11 11 7 5 8 4 3 5 3 6 13 10 14 20 23 22 20 17 13 8 5 3 7 11 17 23 29 35 40 44 47 50 51 51
34 30 27 32 29 7 10 11 10 11 6 5 7 9 7 7 12 16 25 15 12 8 14 10 5 5 5 5 7 9 9 12 15 16 17 14 12 8 3 7 10 13 18 23 27 31 34 36 42 47 50 51 52 50
20 21 20 13 13 18 14 10 13 11 7 7 7 9 8 12 14 20 22 23 14 13 5 8 10 11 7 6 7 6 7 7 8 8 8 8 8 10 14 18 20 26 29 33 34 35 40 44 45 45 45 44 45 44
18 16 22 13 13 12 17 19 9 6 5 7 8 11 12 7 12 19 18 26 13 12 10 10 13 9 6 3 5 4 3 2 1 4 7 9 11 14 18 25 25 27 32 35 36 37 37 39 40 40 39 35 33 30
14 15 17 20 11 16 8 13 7 14 7 9 7 8 9 10 19 14 12 11 8 17 15 12 11 8 6 5 4 3 5 7 8 9 11 14 17 20 21 24 26 24 22 23 21 20 22 24 26 27 28 27 26 24
18 15 19 17 26 6 9 13 10 10 9 9 7 8 9 12 21 11 6 5 8 13 17 14 11 9 5 6 7 6 6 7 9 13 13 15 17 20 20 21 21 20 19 20 21 21 22 24 25 25 27 26 26 26
13 29 18 17 21 16 15 12 12 10 7 6 6 7 8 14 6 7 2 8 15 18 20 19 17 13 11 9 10 10 11 13 12 11 16 14 14 15 18 21 22 22 23 23 24 23 24 27 28 28 28 30 30 29
17 25 15 12 13 10 5 8 9 7 5 8 3 13 7 4 8 2 4 13 14 21 22 21 18 13 12 10 10 10 13 15 16 16 16 16 17 19 21 24 24 23 26 26 26 27 27 29 29 29 29 31 32 33
13 10 15 20 10 8 6 5 3 6 9 10 7 10 6 8 4 6 11 14 19 22 20 18 17 16 13 11 13 16 18 19 21 21 21 22 24 27 27 27 27 27 28 29 31 32 32 32 32 33 34 32 33 37
10 20 5 26 11 14 5 4 6 4 5 8 7 8 4 3 4 9 8 17 18 18 17 17 17 17 17 17 17 17 18 20 22 24 24 23 21 22 25 26 25 27 30 31 33 33 35 36 36 37 39 40 37 36
10 29 18 10 8 11 11 4 3 6 12 6 2 4 6 3 8 9 11 14 18 20 17 15 18 20 20 21 20 20 20 21 22 20 20 21 21 20 22 24 26 29 32 32 33 37 38 39 41 43 42 42 41 39
16 31 12 10 5 5 5 11 11 16 12 10 10 9 8 5 4 3 8 15 22 29 26 19 19 21 22 21 19 20 23 22 19 21 26 25 27 28 29 32 35 36 40 40 39 37 40 44 45 46 49 50 48 47
19 18 9 5 4 5 17 20 17 13 8 6 8 9 10 9 5 6 12 21 24 26 30 22 18 23 24 26 27 29 25 21 23 26 30 31 32 32 34 36 39 41 44 45 46 46 47 48 50 53 54 55 54 55
14 12 12 6 5 12 14 18 12 7 6 6 5 8 7 7 6 8 17 23 22 25 28 22 24 22 26 27 28 31 33 28 30 35 38 41 42 42 43 44 45 47 49 50 49 49 50 52 54 54 56 56 56 56
10 11 8 8 8 6 10 22 5 9 7 5 4 6 6 5 6 7 21 24 25 25 17 19 26 27 29 31 31 35 34 36 39 41 43 47 49 50 51 50 49 48 51 53 53 53 55 56 59 60 61 62 62 63
Wind_Direction_850mb
152 124 108 79 154 160 147 149 137 134 133 113 102 88 87 69 45 38 37 87 149 97 98 158 161 168 150 170 162 155 102 220 71 112 124 159 117 206 110 161 174 151 151 185 93 118 257 166 101 164 204 121 162 155
185 196 138 90 173 181 147 149 135 132 148 145 120 104 96 101 65 47 53 49 124 116 102 121 138 162 171 169 149 161 115 143 166 106 109 107 98 153 154 190 350 200 184 173 181 209 216 185 179 202 179 169 163 148
210 207 175 157 163 155 150 149 137 124 122 137 143 111 100 91 98 81 83 88 89 90 70 96 87 118 141 154 170 156 147 152 151 121 126 119 144 128 160 238 91 244 190 181 110 212 194 199 206 189 186 173 152 141
72 79 168 162 182 158 147 142 139 127 119 121 126 135 105 107 111 106 102 93 68 78 88 49 82 105 118 147 165 176 178 151 141 137 90 117 137 190 195 157 166 186 145 163 289 296 356 217 203 186 164 158 154 149
54 55 92 95 160 130 122 117 117 123 115 113 114 113 120 104 103 113 106 101 97 84 106 87 67 70 107 141 159 158 169 150 133 84 78 152 137 125 347 66 240 188 173 174 220 189 177 197 195 178 172 168 172 179
46 44 54 60 68 82 91 96 106 104 102 107 107 112 116 132 125 120 69 72 100 109 100 74 55 74 99 123 140 141 146 148 132 119 135 136 161 174 146 186 270 175 180 170 162 144 132 128 174 183 185 175 164 148
50 48 47 50 56 65 79 83 88 98 102 102 100 107 118 125 135 68 92 129 104 107 88 74 47 43 73 101 96 99 109 99 100 104 95 139 152 133 109 157 168 167 157 148 139 140 125 143 153 159 152 145 141 139
38 35 35 46 59 66 64 71 80 90 100 97 97 108 109 115 110 66 89 135 97 91 87 101 37 37 61 49 67 53 69 64 47 102 97 92 99 55 137 232 149 151 137 137 128 122 137 129 121 122 129 152 240 283
30 27 34 35 29 59 87 84 80 85 100 112 102 94 83 75 56 83 118 131 78 77 113 99 132 167 136 85 81 58 52 54 21 80 58 86 2 206 220 191 171 166 160 165 159 140 129 122 114 260 267 266 265 290
35 27 29 39 53 57 128 124 96 101 114 122 118 53 61 80 117 112 83 102 50 34 65 95 129 119 131 113 70 95 42 94 92 274 117 79 244 267 217 196 174 155 126 144 144 196 237 297 288 282 284 281 282 281
6 10 14 6 41 54 77 167 134 187 125 100 58 59 99 130 138 95 101 95 55 31 83 109 111 119 106 98 125 41 151 32 94 251 128 257 266 220 172 156 162 174 189 201 232 219 270 272 260 261 279 272 282 293
350 346 359 348 178 126 123 146 177 152 81 87 100 91 123 161 318 80 143 66 85 201 159 128 139 110 107 109 97 17 103 44 186 159 81 284 249 187 186 197 197 205 218 225 230 241 248 245 248 264 281 288 292 296
339 337 311 306 209 160 133 166 173 154 138 103 63 82 57 353 19 180 146 297 40 170 164 152 100 117 106 90 70 90 89 170 128 82 220 229 191 187 170 178 192 204 214 220 220 222 226 235 246 265 282 289 291 290
333 308 215 143 110 174 166 159 170 152 129 96 80 27 112 311 351 358 208 271 355 319 160 138 92 105 108 63 109 96 246 108 59 164 232 223 187 167 167 171 176 180 186 191 194 200 215 234 245 240 54 350 321 313
324 202 193 178 148 86 179 184 186 159 147 127 114 183 193 101 32 339 329 331 355 144 139 108 70 87 28 101 58 112 80 175 201 220 219 167 160 160 159 158 159 157 151 145 139 132 126 121 115 337 320 316 312 309
81 171 208 210 171 55 137 164 148 139 82 98 70 72 60 100 8 22 13 42 352 138 128 61 86 68 57 118 103 193 130 198 231 207 157 154 153 150 148 145 141 137 135 131 132 137 158 292 299 304 304 304 303 302
0 157 164 208 180 168 144 141 126 45 55 55 15 54 41 55 70 5 23 17 80 51 115 113 95 162 100 70 27 205 194 223 87 127 142 148 147 145 144 144 143 146 153 168 188 224 263 282 292 297 299 302 303 303
55 121 88 146 156 147 128 116 109 79 61 45 60 12 52 34 18 39 29 15 57 64 23 131 126 109 150 149 253 231 87 97 126 140 143 149 153 153 153 151 155 169 190 213 232 254 275 289 295 298 298 299 300 299
65 128 141 146 148 128 102 51 47 90 64 73 57 33 49 65 48 39 29 34 82 86 90 53 73 86 123 43 33 82 115 126 143 146 151 152 154 155 158 167 189 239 286 289 286 286 288 288 290 290 290 291 292 293
80 145 136 132 156 85 81 52 52 73 79 55 46 26 43 45 58 37 37 46 60 48 41 34 44 36 21 42 91 123 101 117 145 154 157 163 169 173 240 269 281 280 282 284 286 287 287 289 289 290 290 290 291 292
75 77 108 124 70 68 77 48 56 57 60 70 26 40 44 30 30 29 16 21 68 44 67 45 38 33 45 83 93 106 107 116 127 142 162 168 211 262 276 282 290 297 305 306 306 306 306 304 302 297 294 292 292 294
74 105 97 91 58 66 64 39 61 47 43 56 33 22 43 38 21 9 3 43 51 25 23 15 19 31 46 48 51 76 98 82 39 296 286 284 284 293 298 301 304 303 305 307 311 313 313 308 305 302 299 296 292 289
64 60 57 34 73 47 35 25 45 23 59 355 19 41 23 13 4 8 71 56 65 16 15 16 17 17 44 60 50 5 324 314 303 298 301 300 299 297 297 296 298 299 301 306 317 325 327 323 318 311 304 299 298 298
56 51 31 37 27 19 360 30 36 28 44 26 30 13 354 337 350 53 76 61 17 8 7 3 9 19 32 25 26 11 332 315 321 317 315 311 307 304 302 296 297 300 304 311 313 317 316 312 308 308 306 303 300 299
64 12 23 3 15 17 24 7 358 25 46 348 45 0 338 345 50 42 19 357 13 17 16 11 4 10 21 27 12 350 339 333 334 317 308 305 301 300 301 301 300 303 304 304 304 303 303 303 304 304 302 300 299 299
66 18 36 350 360 39 340 24 17 348 332 10 350 317 315 47 59 340 257 339 349 358 3 10 13 9 350 343 330 321 319 319 318 314 307 307 301 297 298 298 296 301 299 298 296 298 301 301 300 301 301 301 302 301
48 342 12 23 3 341 21 18 355 49 36 11 350 337 348 57 9 287 344 354 347 351 354 353 352 353 352 342 331 331 327 324 321 315 309 305 302 298 296 297 297 294 293 295 297 298 298 297 297 299 299 297 296 295
66 21 5 339 13 20 116 52 45 32 287 342 300 14 86 163 238 339 340 348 355 3 5 2 359 356 351 349 346 337 325 321 318 316 315 310 305 299 298 298 298 298 298 295 295 297 297 296 295 292 291 292 292 291
18 352 352 355 6 38 44 75 307 351 332 316 156 280 281 295 336 355 12 18 19 12 7 3 1 358 351 347 339 332 327 323 321 320 319 323 322 318 312 306 303 300 298 298 296 296 295 294 293 294 294 295 294 291
356 355 3 8 51 351 358 351 333 325 319 300 290 292 297 323 357 58 61 34 20 14 3 350 351 353 349 346 342 333 325 323 319 314 315 316 311 310 306 302 300 299 296 297 295 291 290 291 291 291 293 295 296 295
343 349 330 330 285 327 338 330 331 323 316 303 301 288 298 315 298 286 326 341 341 346 352 348 332 337 340 338 336 339 342 330 326 322 317 315 313 310 306 302 300 298 296 295 294 293 291 288 287 288 288 289 290 291
326 347 344 329 315 325 333 342 319 310 301 302 294 308 309 307 294 323 339 335 332 330 331 328 335 329 324 326 324 324 322 318 315 314 313 312 312 311 308 304 302 298 296 295 295 294 292 291 291 291 292 293 294 293
307 329 321 305 305 320 332 339 315 324 274 280 287 305 311 285 276 327 345 347 340 333 337 337 331 330 326 323 321 320 314 313 313 311 310 308 308 307 304 303 300 297 295 294 294 294 293 293 294 295 295 295 296 296